Wind_Speed
4 3 3 3 2 2 1 2 4 5 5 6 6 7 8 9 8 8 8 8 8 9 9 9 10 9 9 9 8 8 7 7 7 7 7 6 5 6 6 6 6 6 6 5
5 3 3 3 4 4 4 4 4 6 8 8 6 7 7 9 9 9 9 8 8 8 8 8 9 9 9 9 9 8 8 8 8 8 8 7 6 6 7 7 6 7 7 7
6 5 5 5 6 6 7 6 6 8 8 8 8 7 8 9 10 10 9 10 10 10 9 8 8 9 9 9 9 9 8 9 9 8 8 8 7 7 7 7 7 8 8 8
8 7 7 7 7 9 9 8 8 9 9 9 8 8 9 10 11 11 11 11 11 11 10 10 10 9 9 9 9 9 9 9 9 9 7 7 8 8 8 8 9 9 9 9
10 9 8 8 8 9 9 9 10 11 12 12 11 11 10 11 13 13 12 12 12 12 12 12 12 11 10 10 10 10 10 10 10 9 8 8 8 9 9 9 10 10 10 10
11 10 10 10 10 10 10 11 11 12 12 11 11 13 12 12 13 13 13 12 12 13 14 13 13 12 11 10 10 10 10 11 11 10 9 9 10 10 10 11 11 12 12 12
12 12 12 11 12 11 11 11 12 13 13 12 13 15 14 13 13 13 14 14 12 13 14 14 14 13 12 12 11 11 11 11 12 11 11 11 11 11 11 12 13 13 13 14
12 12 12 13 12 12 13 13 14 15 15 15 15 17 15 15 14 14 15 15 15 14 14 15 14 13 13 13 13 12 12 12 12 12 12 12 13 13 12 13 14 14 14 15
13 12 11 12 12 13 14 14 15 16 17 18 18 18 17 16 16 15 16 16 16 15 15 15 15 15 14 14 15 14 13 13 13 13 14 14 14 14 14 15 15 15 16 17
14 15 13 13 13 14 16 16 17 18 19 20 19 18 18 17 17 16 17 16 17 17 16 16 17 16 16 16 16 16 16 15 15 15 15 15 15 15 15 16 17 17 17 17
18 18 16 17 18 17 16 18 19 20 20 20 20 19 18 19 19 19 18 18 18 17 17 18 17 17 18 18 18 18 18 17 17 17 17 16 16 16 16 16 17 18 18 19
22 22 21 19 19 20 20 20 20 21 21 22 23 22 21 21 21 20 20 20 20 19 19 19 20 20 19 19 20 19 18 18 17 17 17 17 17 17 17 18 18 18 19 18
24 24 23 23 22 22 22 22 22 22 22 23 23 23 23 22 22 22 21 21 21 22 23 22 21 22 20 19 20 19 18 18 18 18 18 18 18 18 18 19 19 19 19 19
26 26 26 25 23 23 23 22 23 24 25 25 24 24 24 23 23 23 22 23 23 25 26 25 25 23 21 20 19 19 18 19 19 19 19 19 19 19 19 19 19 19 19 20
27 27 26 26 25 25 25 24 25 26 26 27 25 25 24 24 24 24 24 25 25 27 27 26 24 22 20 20 19 19 19 20 20 21 20 20 20 21 20 20 20 20 20 20
28 28 27 27 26 26 27 26 26 26 27 28 27 27 26 26 26 26 26 26 26 27 27 27 24 23 22 21 21 20 21 21 21 21 21 22 22 21 21 21 21 22 21 21
29 30 28 28 28 28 28 26 26 27 28 28 27 27 27 26 26 26 26 27 28 27 27 26 26 25 24 24 24 23 22 22 22 23 23 23 23 22 22 23 23 23 22 22
30 28 29 29 28 29 28 28 27 27 28 28 28 28 28 28 28 28 28 29 28 27 27 27 26 25 25 25 25 24 23 23 22 23 23 23 24 24 24 24 24 24 23 23
30 30 30 30 30 29 28 28 28 28 29 29 30 29 28 28 29 29 30 30 31 30 29 28 27 26 26 26 25 24 24 24 24 24 24 25 25 25 25 24 25 24 24 24
31 31 31 31 32 31 29 27 27 28 30 29 29 28 28 29 30 30 31 31 30 29 29 29 28 28 28 27 26 25 25 25 25 25 25 26 26 26 25 25 25 25 25 25
32 32 31 31 33 32 30 28 28 29 29 28 28 29 29 30 30 30 29 29 30 29 28 28 28 28 27 26 26 25 26 26 26 26 25 25 25 25 26 26 26 26 26 26
32 33 33 32 32 32 30 29 29 29 28 28 28 29 30 30 30 30 30 29 29 29 29 29 30 29 28 28 27 26 26 27 27 27 27 26 25 25 26 26 27 27 27 27
32 33 34 34 33 31 30 30 29 28 28 28 28 28 29 30 30 31 30 30 29 29 30 30 30 30 30 29 28 27 27 28 28 27 27 27 26 26 26 27 28 28 27 26
31 32 33 33 32 31 31 30 30 30 29 28 28 28 28 29 30 31 30 30 29 30 30 30 29 29 30 30 30 29 29 28 28 28 27 27 28 27 28 28 28 27 27 25
30 30 32 32 33 32 30 30 30 30 29 29 29 29 30 30 31 31 31 30 29 29 29 29 30 30 30 29 30 29 28 28 28 28 28 28 28 28 28 27 27 27 26 26
29 29 29 30 31 32 30 29 29 29 29 29 28 29 29 30 31 31 31 31 30 30 30 29 29 29 29 29 29 28 28 28 28 28 28 28 28 27 27 27 27 26 26 25
Wind_Direction
175 177 198 196 194 208 244 327 333 345 343 327 330 334 340 345 346 349 353 359 4 358 358 0 0 357 355 354 350 344 343 341 339 338 337 331 326 329 333 333 332 330 325 318
204 190 197 218 221 230 236 260 286 316 323 317 309 314 325 337 331 337 338 346 351 347 348 349 350 349 349 350 346 339 335 333 333 332 331 330 324 322 324 324 323 325 320 311
223 217 211 231 244 247 251 263 285 296 301 303 295 297 314 328 328 325 327 326 330 335 338 339 340 341 340 340 340 337 331 331 330 329 329 326 323 318 315 314 314 315 314 311
225 227 224 232 247 258 258 260 265 271 279 284 288 295 302 311 320 322 319 321 321 322 328 329 331 333 334 333 332 331 328 327 326 322 321 317 313 310 310 309 309 310 308 305
226 229 233 244 256 257 251 252 254 259 262 270 278 289 293 302 311 312 314 317 323 322 320 319 321 325 327 327 325 325 327 326 326 321 310 307 306 303 301 304 304 303 301 297
226 231 243 250 251 261 255 248 253 263 265 268 279 282 287 298 300 302 303 305 311 317 317 317 315 315 317 318 319 320 322 322 323 320 309 303 303 298 297 297 298 298 298 297
231 236 244 247 247 258 265 261 260 259 263 272 276 279 285 289 293 296 300 300 300 304 311 314 312 310 313 313 314 318 315 315 315 313 307 304 300 295 293 293 294 295 295 297
239 240 241 247 249 256 263 265 266 272 274 276 277 277 283 288 291 292 298 300 300 301 307 306 310 310 311 308 309 308 308 308 308 308 304 302 300 297 292 291 291 291 293 292
252 254 245 247 254 260 266 263 265 272 276 276 277 279 278 284 288 291 295 297 300 298 301 302 303 304 304 303 305 304 300 303 305 306 304 299 299 295 294 295 293 291 290 291
260 260 251 248 249 254 258 262 266 269 273 273 274 276 278 282 285 287 289 293 296 296 297 299 298 299 299 301 302 303 301 302 301 300 306 300 295 294 292 291 292 292 291 290
255 260 255 249 247 247 247 253 259 265 270 273 274 275 280 284 288 291 290 289 291 292 298 299 297 298 299 299 300 301 300 301 300 299 300 303 300 297 296 292 291 293 293 292
250 254 257 253 251 250 251 253 257 263 266 271 274 277 282 285 289 289 288 291 292 290 293 294 295 296 298 299 298 296 297 296 297 298 298 298 299 299 299 298 295 294 291 292
249 250 251 250 248 249 251 252 254 261 266 269 274 278 280 283 284 286 289 292 293 295 296 294 295 293 292 293 293 290 291 295 295 296 298 298 299 297 299 301 300 297 293 292
248 249 249 250 250 248 249 251 254 258 261 266 272 277 277 278 282 285 288 292 294 296 296 297 297 290 286 287 287 286 287 289 292 293 296 301 302 301 303 305 302 299 297 297
250 252 249 251 251 250 251 253 253 255 259 264 270 274 276 279 281 283 285 287 290 292 292 295 295 289 285 284 284 285 284 286 287 290 293 295 298 299 301 302 302 300 299 298
249 252 251 251 252 253 254 256 255 256 259 262 267 269 273 276 278 281 283 286 288 290 292 293 293 291 288 285 286 286 285 285 285 286 289 292 294 297 299 301 300 299 298 298
249 251 251 252 253 256 256 258 258 257 258 261 265 269 270 273 277 279 283 284 288 291 293 293 293 290 288 287 286 285 284 284 285 285 286 288 291 295 298 299 300 300 298 298
250 249 249 252 255 256 259 258 259 260 260 262 265 267 270 273 276 279 282 284 287 289 290 291 289 285 286 286 286 286 287 286 287 288 287 288 290 293 295 296 297 298 296 297
249 250 251 254 255 258 259 260 260 260 261 262 265 266 270 274 275 277 280 283 285 286 286 286 285 284 284 284 284 284 285 286 287 289 288 286 288 291 293 294 296 298 297 296
248 251 254 255 256 257 259 261 260 262 263 266 266 268 271 274 275 277 278 280 282 283 283 283 284 283 283 283 282 283 284 286 287 288 288 287 287 289 291 292 293 294 295 295
248 250 253 255 258 259 261 262 261 263 266 269 268 269 271 274 276 278 278 280 282 282 282 282 283 281 281 282 284 283 284 285 285 286 288 288 288 289 289 290 292 293 294 294
250 250 251 254 257 259 260 261 260 261 264 266 268 269 270 273 277 279 280 282 283 283 282 283 283 281 280 281 282 282 283 284 284 285 287 287 288 289 288 289 291 292 292 294
250 251 252 253 256 258 260 260 260 261 262 265 268 271 273 275 277 279 281 282 284 285 285 285 284 283 280 280 280 280 282 283 284 285 285 285 287 289 289 289 290 291 291 293
250 250 252 253 253 255 258 259 261 262 263 265 269 272 275 278 279 280 281 282 283 283 283 283 282 282 282 281 280 279 280 281 282 284 285 286 287 287 288 290 290 291 292 291
251 250 251 252 254 256 259 260 261 262 263 265 268 272 275 277 278 280 281 282 283 283 283 282 281 281 282 282 281 280 279 281 282 283 284 286 286 287 288 288 289 289 288 289
251 252 251 252 254 257 259 263 262 262 264 265 269 273 275 277 278 279 280 282 283 283 282 282 282 282 282 282 280 280 280 281 282 283 283 284 286 288 287 287 288 289 289 288
Height
5911 5912 5912 5913 5913 5913 5913 5913 5913 5913 5913 5913 5912 5912 5911 5909 5909 5908 5907 5906 5905 5903 5902 5901 5899 5897 5896 5894 5892 5891 5890 5888 5887 5886 5885 5884 5882 5881 5880 5879 5879 5878 5877 5877
5910 5910 5911 5911 5911 5911 5911 5912 5912 5912 5912 5911 5911 5911 5909 5909 5908 5907 5906 5905 5904 5903 5902 5900 5899 5897 5895 5893 5892 5890 5888 5887 5885 5884 5883 5881 5880 5879 5878 5877 5877 5876 5876 5875
5908 5909 5909 5909 5910 5910 5910 5911 5910 5910 5910 5910 5910 5909 5908 5907 5906 5906 5905 5904 5904 5902 5901 5899 5897 5896 5894 5892 5890 5889 5887 5885 5884 5882 5880 5879 5878 5877 5876 5875 5875 5874 5873 5872
5905 5907 5907 5907 5907 5908 5909 5909 5909 5909 5909 5908 5908 5907 5907 5905 5904 5904 5903 5902 5902 5900 5899 5897 5896 5894 5892 5891 5889 5887 5885 5883 5882 5879 5878 5877 5876 5875 5874 5873 5872 5872 5871 5870
5903 5904 5904 5905 5905 5906 5906 5907 5907 5907 5907 5907 5906 5905 5905 5903 5902 5902 5901 5900 5899 5898 5897 5895 5893 5892 5890 5889 5887 5885 5883 5881 5879 5877 5876 5875 5874 5873 5872 5871 5870 5869 5868 5867
5900 5901 5902 5902 5903 5903 5904 5904 5904 5904 5904 5904 5904 5903 5903 5901 5900 5899 5898 5898 5897 5896 5894 5892 5891 5889 5888 5886 5884 5882 5881 5879 5877 5875 5874 5872 5871 5870 5869 5868 5867 5866 5865 5864
5898 5898 5899 5900 5900 5901 5901 5901 5901 5901 5900 5900 5900 5899 5900 5899 5898 5897 5895 5895 5894 5894 5891 5889 5887 5887 5885 5884 5882 5880 5878 5877 5875 5873 5871 5870 5869 5867 5866 5865 5863 5862 5861 5860
5894 5895 5896 5896 5897 5897 5897 5898 5898 5897 5896 5896 5896 5895 5896 5895 5895 5894 5893 5892 5891 5891 5889 5887 5885 5884 5882 5881 5879 5877 5875 5873 5872 5870 5868 5867 5865 5864 5862 5861 5860 5858 5857 5856
5890 5892 5893 5893 5894 5894 5894 5894 5894 5894 5893 5892 5891 5891 5891 5891 5890 5890 5889 5888 5887 5887 5886 5883 5881 5880 5879 5877 5876 5874 5872 5870 5868 5866 5864 5862 5861 5860 5859 5857 5855 5854 5852 5851
5886 5888 5889 5890 5890 5890 5890 5890 5890 5890 5889 5888 5887 5887 5887 5887 5887 5886 5885 5884 5883 5882 5881 5879 5878 5876 5874 5872 5871 5869 5868 5866 5864 5861 5859 5857 5856 5855 5854 5852 5851 5849 5847 5845
5882 5883 5884 5885 5885 5885 5886 5886 5885 5885 5884 5883 5882 5884 5883 5882 5881 5881 5880 5879 5878 5877 5876 5875 5873 5871 5869 5868 5866 5865 5863 5861 5859 5857 5855 5854 5852 5850 5848 5847 5845 5844 5842 5840
5876 5877 5878 5879 5880 5880 5880 5880 5880 5880 5879 5879 5878 5880 5878 5878 5877 5876 5875 5874 5873 5871 5870 5869 5868 5866 5865 5863 5861 5860 5858 5857 5855 5853 5851 5849 5847 5846 5844 5842 5841 5839 5837 5835
5870 5871 5872 5873 5876 5875 5874 5874 5874 5875 5874 5873 5873 5875 5872 5872 5871 5871 5870 5869 5868 5866 5864 5863 5862 5861 5859 5858 5857 5855 5853 5851 5850 5848 5846 5844 5843 5841 5839 5838 5836 5833 5831 5829
5864 5865 5866 5868 5868 5869 5869 5869 5869 5869 5868 5868 5868 5868 5867 5866 5865 5865 5864 5863 5862 5861 5859 5857 5856 5854 5853 5852 5851 5849 5848 5846 5844 5843 5841 5839 5837 5835 5833 5832 5830 5828 5826 5824
5857 5858 5859 5860 5861 5862 5862 5863 5863 5863 5862 5862 5862 5862 5861 5861 5860 5859 5858 5857 5856 5855 5853 5851 5849 5848 5847 5846 5845 5844 5843 5841 5839 5838 5836 5834 5832 5830 5828 5826 5824 5822 5820 5818
5850 5852 5853 5854 5855 5855 5855 5856 5857 5856 5856 5856 5856 5856 5855 5855 5854 5854 5853 5852 5851 5849 5847 5846 5844 5842 5841 5840 5838 5837 5837 5835 5834 5832 5830 5827 5826 5824 5822 5820 5818 5816 5814 5812
5843 5845 5846 5846 5847 5847 5848 5849 5850 5850 5850 5850 5850 5850 5849 5848 5848 5847 5846 5845 5844 5842 5841 5840 5838 5836 5835 5833 5832 5830 5830 5829 5827 5825 5823 5821 5820 5818 5817 5814 5812 5810 5808 5805
5836 5837 5837 5838 5840 5840 5843 5843 5842 5842 5842 5843 5844 5843 5842 5842 5841 5841 5840 5838 5837 5836 5834 5833 5832 5830 5829 5827 5826 5824 5823 5822 5820 5819 5817 5815 5813 5812 5810 5808 5806 5803 5801 5799
5827 5828 5829 5830 5831 5832 5834 5835 5835 5835 5835 5836 5836 5836 5835 5834 5834 5833 5832 5831 5830 5829 5828 5826 5825 5823 5822 5820 5818 5817 5816 5815 5813 5812 5810 5808 5807 5805 5803 5801 5799 5796 5794 5792
5819 5820 5821 5821 5822 5823 5827 5828 5827 5828 5827 5828 5828 5828 5828 5827 5826 5826 5825 5824 5823 5822 5820 5819 5817 5815 5814 5812 5810 5810 5809 5807 5806 5804 5803 5801 5799 5797 5796 5794 5792 5790 5788 5785
5810 5811 5812 5812 5813 5815 5818 5819 5820 5821 5821 5821 5820 5820 5820 5819 5819 5818 5817 5816 5815 5814 5812 5811 5809 5807 5806 5804 5802 5801 5801 5799 5798 5797 5795 5794 5792 5790 5789 5787 5785 5783 5780 5778
5801 5802 5803 5804 5805 5808 5809 5810 5811 5812 5813 5813 5813 5812 5812 5811 5810 5809 5809 5807 5806 5805 5804 5802 5801 5799 5797 5796 5795 5794 5793 5791 5790 5788 5787 5786 5784 5783 5781 5779 5777 5775 5773 5771
5791 5793 5794 5796 5798 5800 5800 5801 5802 5803 5804 5804 5804 5803 5803 5802 5802 5801 5800 5799 5797 5796 5795 5793 5792 5791 5789 5788 5787 5786 5784 5783 5781 5780 5779 5778 5776 5775 5773 5771 5769 5767 5765 5763
5782 5783 5784 5786 5788 5790 5791 5792 5793 5794 5795 5795 5795 5795 5794 5794 5793 5792 5791 5790 5789 5788 5786 5785 5783 5782 5780 5779 5778 5776 5775 5774 5773 5771 5770 5769 5768 5767 5765 5763 5761 5759 5757 5755
5773 5774 5775 5777 5779 5780 5782 5783 5784 5785 5786 5786 5786 5786 5786 5785 5784 5783 5783 5782 5780 5779 5777 5775 5774 5772 5771 5770 5768 5765 5765 5764 5764 5763 5762 5761 5760 5758 5756 5755 5753 5751 5749 5747
5765 5766 5767 5769 5771 5772 5774 5774 5775 5776 5777 5777 5778 5778 5777 5777 5776 5775 5774 5773 5771 5770 5768 5766 5765 5763 5761 5760 5758 5757 5756 5755 5755 5754 5753 5752 5751 5750 5748 5747 5745 5743 5742 5740